This is the latest recevied weather packets stored in our database for station/object OK3MS-5. If no packets are shown the sender has not sent any weather packets the latest 10 day(s).
| Time | Temp. | Humidity | Pressure | Rain* | Wind** | Luminosity | Snow |
|---|---|---|---|---|---|---|---|
| 1787902803 | 21.67° C | 61% | 1011.8 hPa | 0 mm | - | 335 W/m² | - |
| 1787902506 | 21.67° C | 62% | 1012 hPa | 0 mm | - | 308 W/m² | - |
| 1787902204 | 21.11° C | 62% | 1012 hPa | 0 mm | - | 318 W/m² | - |
| 1787901903 | 21.11° C | 63% | 1012.2 hPa | 0 mm | - | 304 W/m² | - |
| 1787901604 | 20.56° C | 63% | 1012.2 hPa | 0 mm | - | 286 W/m² | - |
| 1787901303 | 21.11° C | 63% | 1012.3 hPa | 0 mm | - | 262 W/m² | - |
| 1787901004 | 20.56° C | 63% | 1012.6 hPa | 0 mm | - | 241 W/m² | - |
| 1787900704 | 20.56° C | 65% | 1012.7 hPa | 0 mm | - | 232 W/m² | - |
| 1787900404 | 20° C | 64% | 1012.9 hPa | 0 mm | - | 221 W/m² | - |
| 1787900105 | 20° C | 66% | 1012.7 hPa | 0 mm | - | 193 W/m² | - |
| 1787899802 | 20° C | 66% | 1012.8 hPa | 0 mm | - | 160 W/m² | - |
| 1787899503 | 20° C | 66% | 1012.8 hPa | 0 mm | - | 129 W/m² | - |
| 1787899203 | 19.44° C | 67% | 1012.8 hPa | 0 mm | - | 115 W/m² | - |
| 1787898904 | 19.44° C | 67% | 1012.8 hPa | 0 mm | - | 107 W/m² | - |
| 1787898602 | 19.44° C | 66% | 1013 hPa | 0 mm | - | 107 W/m² | - |
| 1787898304 | 19.44° C | 67% | 1012.9 hPa | 0 mm | - | 107 W/m² | - |
| 1787898004 | 19.44° C | 67% | 1012.8 hPa | 0 mm | - | 106 W/m² | - |
| 1787897704 | 19.44° C | 67% | 1012.8 hPa | 0 mm | - | 99 W/m² | - |
| 1787897404 | 19.44° C | 67% | 1012.7 hPa | 0 mm | - | 88 W/m² | - |
| 1787897104 | 19.44° C | 67% | 1012.7 hPa | 0 mm | - | 84 W/m² | - |
| 1787896803 | 19.44° C | 67% | 1012.7 hPa | 0 mm | - | 82 W/m² | - |
| 1787896502 | 19.44° C | 67% | 1012.7 hPa | 0 mm | - | 84 W/m² | - |
| 1787896203 | 19.44° C | 67% | 1012.3 hPa | 0 mm | - | 83 W/m² | - |
| 1787895902 | 20° C | 67% | 1012.3 hPa | 0 mm | - | 83 W/m² | - |
| 1787895603 | 19.44° C | 67% | 1012.4 hPa | 0 mm | - | 89 W/m² | - |
* Rain latest hour (hover to see other rain measurements)
** Current wind speed in m/s (hover to see current wind gust speed)